Change the Weather History Date:

Thursday, September 18, 2014

  Actual Average Record
Temperature  
Mean Temperature 60 °F 62 °F  
Max Temperature 73 °F 74 °F 89 °F (2013)
Min Temperature 46 °F 49 °F 37 °F (2012)
Degree Days  
Heating Degree Days 5 5  
Month to date heating degree days 113 52  
Since 1 July heating degree days 131 73  
Cooling Degree Days 0 2  
Month to date cooling degree days 33 50  
Year to date cooling degree days 634 706  
Growing Degree Days 9 (Base 50)    
Moisture  
Dew Point 51 °F    
Average Humidity 75    
Maximum Humidity 100    
Minimum Humidity 49    
Precipitation  
Precipitation 0.00 in 0.13 in 0.96 in (2003)
Month to date precipitation 1.70 2.09  
Sea Level Pressure  
Sea Level Pressure 30.05 in    
Wind  
Wind Speed 7 mph (ESE)    
Max Wind Speed 18 mph    
Max Gust Speed 23 mph    
Visibility 6 miles    
Events Fog    
T = Trace of Precipitation, MM = Missing Value Source: NWS Daily Summary

Daily Weather History Graph

Daily Weather History Graph

Search for Another Location

Airport or City:

Trip Planner

Search our weather history database for the weather conditions in past years. The results will help you decide how hot, cold, wet, or windy it might be!

Date:

Astronomy

Sep. 18, 2014 Rise Set
Actual Time 6:54 AM CDT 7:15 PM CDT
Civil Twilight 6:26 AM CDT 7:43 PM CDT
Nautical Twilight 5:53 AM CDT 8:16 PM CDT
Astronomical Twilight 5:20 AM CDT 8:50 PM CDT
Moon 1:43 AM CDT (9/18) 4:11 PM CDT (9/18)
Length of Visible Light 13h 17m
Length of Day
12h 21m
Waning Crescent, 26% of the Moon is Illuminated
Sep 18
Waning Crescent
Sep 24
New
Oct 1
First Quarter
Oct 8
Full
Oct 15
Last Quarter

Hourly Weather History & Observations

Time (CDT) Temp. Windchill Dew Point Humidity Pressure Visibility Wind Dir Wind Speed Gust Speed Precip Events Conditions
12:53 AM 50.0 °F - 48.9 °F 96% 30.01 in 9.0 mi ESE 5.8 mph - N/A   Clear
1:53 AM 52.0 °F - 51.1 °F 97% 30.02 in 7.0 mi ESE 3.5 mph - N/A   Clear
2:53 AM 51.1 °F - 50.0 °F 96% 30.02 in 5.0 mi ESE 3.5 mph - N/A   Clear
4:53 AM 48.0 °F - 46.9 °F 96% 30.03 in 4.0 mi East 4.6 mph - N/A   Clear
5:40 AM 46.9 °F - 46.0 °F 97% 30.04 in 2.5 mi ESE 5.8 mph - N/A   Clear
5:53 AM 48.0 °F - 48.0 °F 100% 30.04 in 2.5 mi ESE 5.8 mph - N/A   Clear
6:11 AM 46.9 °F - 46.9 °F 100% 30.04 in 2.0 mi East 4.6 mph - N/A   Clear
6:26 AM 48.0 °F - 48.0 °F 100% 30.05 in 1.5 mi ESE 4.6 mph - N/A   Clear
6:37 AM 46.0 °F 44.8 °F 46.0 °F 100% 30.05 in 3.0 mi ESE 3.5 mph - N/A   Clear
6:53 AM 46.9 °F - 45.0 °F 93% 30.06 in 4.0 mi Calm Calm - N/A   Clear
6:55 AM 46.9 °F - 45.0 °F 93% 30.06 in 1.0 mi Calm Calm - N/A   Clear
7:02 AM 46.9 °F - 46.0 °F 97% 30.06 in 0.2 mi East 3.5 mph - N/A Fog Fog
7:41 AM 46.9 °F - 46.9 °F 100% 30.07 in 2.0 mi East 4.6 mph - N/A   Clear
7:53 AM 50.0 °F - 50.0 °F 100% 30.08 in 2.5 mi Calm Calm - N/A   Clear
8:20 AM 54.0 °F - 52.0 °F 93% 30.09 in 3.0 mi East 3.5 mph - N/A   Clear
8:53 AM 55.9 °F - 54.0 °F 93% 30.10 in 4.0 mi ESE 4.6 mph - N/A   Clear
9:53 AM 62.1 °F - 57.0 °F 84% 30.10 in 9.0 mi SE 5.8 mph - N/A   Clear
10:53 AM 64.0 °F - 54.0 °F 70% 30.11 in 10.0 mi SSE 10.4 mph - N/A   Clear
11:53 AM 66.9 °F - 53.1 °F 61% 30.09 in 10.0 mi SSE 13.8 mph 20.7 mph N/A   Clear
12:53 PM 69.1 °F - 53.1 °F 57% 30.08 in 10.0 mi ESE 11.5 mph - N/A   Clear
1:53 PM 71.1 °F - 54.0 °F 55% 30.06 in 10.0 mi SE 13.8 mph - N/A   Partly Cloudy
2:53 PM 72.0 °F - 52.0 °F 49% 30.05 in 10.0 mi SSE 10.4 mph - N/A   Clear
3:53 PM 72.0 °F - 54.0 °F 53% 30.03 in 10.0 mi SE 15.0 mph - N/A   Clear
4:53 PM 72.0 °F - 53.1 °F 51% 30.03 in 10.0 mi SE 11.5 mph - N/A   Clear
5:53 PM 71.1 °F - 53.1 °F 53% 30.02 in 10.0 mi SE 10.4 mph - N/A   Clear
6:53 PM 66.9 °F - 54.0 °F 63% 30.02 in 10.0 mi SE 6.9 mph - N/A   Clear
7:53 PM 61.0 °F - 53.1 °F 75% 30.03 in 10.0 mi ESE 3.5 mph - N/A   Clear
8:53 PM 55.9 °F - 52.0 °F 87% 30.06 in 10.0 mi ESE 4.6 mph - N/A   Clear
9:53 PM 57.9 °F - 53.1 °F 84% 30.06 in 10.0 mi SE 3.5 mph - N/A   Clear
10:53 PM 53.1 °F - 50.0 °F 89% 30.06 in 10.0 mi ESE 6.9 mph - N/A   Clear
11:53 PM 53.1 °F - 51.1 °F 93% 30.05 in 10.0 mi ESE 6.9 mph - N/A   Clear